| time (UTC) | temp F | wind direction | speed knots | gust knots | rain 1hr in | rain 24hr in | rain mn in | humidity % | barometer mb |
| 20260903210107 | 63 | 98 | 1.7 | 7.8 | 0.00 | 0.00 | 0.00 | ||
| 20260903203046 | 63 | 30 | 2.6 | 6.1 | 0.00 | 0.00 | 0.00 | ||
| 20260903200114 | 62 | 54 | 2.6 | 7.0 | 0.00 | 0.00 | 0.00 | ||
| 20260903193036 | 61 | 264 | 0.9 | 7.0 | 0.00 | 0.00 | 0.00 | ||
| 20260903183041 | 59 | 205 | 1.7 | 4.3 | 0.00 | 0.00 | 0.00 | ||
| 20260903173054 | 58 | 83 | 0.9 | 3.5 | 0.00 | 0.00 | 0.00 | ||
| 20260903170106 | 56 | 64 | 1.7 | 5.2 | 0.00 | 0.00 | 0.00 | ||
| 20260903163038 | 56 | 45 | 1.7 | 4.3 | 0.00 | 0.00 | 0.00 | ||
| 20260903153055 | 55 | 52 | 1.7 | 5.2 | 0.00 | 0.00 | 0.00 | ||
| 20260903143104 | 54 | 58 | 0.0 | 1.7 | 0.00 | 0.00 | 0.00 | ||
| 20260903140113 | 54 | 58 | 0.0 | 0.9 | 0.00 | 0.00 | 0.00 | ||
| 20260903133047 | 54 | 73 | 0.0 | 1.7 | 0.00 | 0.00 | 0.00 | ||
| 20260903130120 | 54 | 63 | 2.6 | 3.5 | 0.00 | 0.00 | 0.00 | ||
| 20260903120122 | 55 | 76 | 1.7 | 2.6 | 0.00 | 0.00 | 0.00 | ||
| 20260903113044 | 55 | 80 | 1.7 | 3.5 | 0.00 | 0.00 | 0.00 | ||
| 20260903110109 | 55 | 101 | 0.9 | 3.5 | 0.00 | 0.00 | 0.00 | ||
| 20260903100107 | 55 | 269 | 0.0 | 1.7 | 0.00 | 0.00 | 0.00 | ||
| 20260903083025 | 56 | 87 | 0.0 | 1.7 | 0.00 | 0.00 | 0.00 | ||
| 20260903080100 | 56 | 258 | 0.0 | 1.7 | 0.00 | 0.00 | 0.00 | ||
| 20260903073050 | 56 | 167 | 0.0 | 0.9 | 0.00 | 0.00 | 0.00 | ||
| 20260903070109 | 56 | 268 | 0.0 | 1.7 | 0.00 | 0.00 | 0.00 | ||
| 20260903063040 | 56 | 24 | 0.0 | 0.9 | 0.00 | 0.00 | 0.00 | ||
| 20260903060109 | 57 | 70 | 1.7 | 3.5 | 0.00 | 0.00 | 0.00 | ||
| 20260903053029 | 57 | 232 | 0.0 | 0.9 | 0.00 | 0.00 | 0.00 | ||
| 20260903050108 | 57 | 81 | 0.0 | 0.9 | 0.00 | 0.00 | 0.00 | ||
| 20260903043033 | 58 | 237 | 0.0 | 0.9 | 0.00 | 0.00 | 0.00 | ||
| 20260903040112 | 58 | 208 | 0.0 | 1.7 | 0.00 | 0.00 | 0.00 | ||
| 20260903033047 | 59 | 200 | 0.0 | 2.6 | 0.00 | 0.00 | 0.00 | ||
| 20260903030106 | 58 | 216 | 0.0 | 2.6 | 0.00 | 0.00 | 0.00 | ||
| 20260903023058 | 59 | 205 | 0.9 | 5.2 | 0.00 | 0.00 | 0.00 | ||
| 20260903020100 | 60 | 215 | 2.6 | 11.3 | 0.00 | 0.00 | 0.00 | ||
| 20260903013056 | 61 | 348 | 0.9 | 7.0 | 0.00 | 0.00 | 0.00 | ||
| 20260903010059 | 61 | 241 | 3.5 | 7.0 | 0.00 | 0.00 | 0.00 | ||
| 20260903003053 | 62 | 260 | 0.9 | 10.4 | 0.00 | 0.00 | 0.00 | ||
| 20260902233045 | 63 | 282 | 3.5 | 7.0 | 0.00 | 0.00 | 0.00 | ||
| 20260902230113 | 60 | 179 | 2.6 | 8.7 | 0.00 | 0.00 | 0.00 | ||
| 20260902223045 | 60 | 249 | 2.6 | 14.8 | 0.00 | 0.00 | 0.00 | ||
| 20260902220054 | 59 | 15 | 2.6 | 7.0 | 0.00 | 0.00 | 0.00 | ||
| 20260902213032 | 58 | 78 | 3.5 | 7.8 | 0.00 | 0.00 | 0.00 |